Wind_Speed
33 33 32 32 32 32 32 32 33 33 33 31 29 28 27 27 23 20 23 24 23 23 24 22 23 26 27 27 29 29 29 29 29 30 30 27 24 25 27 27 27 26 27 27 27 26 25 26 24 20 20 19 16 14 12 11 11 12 13 13 15 23 29 27 25 28 32 29 28 29 29 33 40 44 45 42 38 39 37 30 25 22 19 17 9 7 12
33 33 32 32 32 32 31 31 31 31 32 32 29 27 27 27 23 20 21 23 21 22 23 21 22 24 24 25 27 28 29 29 29 29 30 29 26 25 24 24 24 23 22 23 24 22 20 22 22 20 20 19 18 18 14 12 12 12 12 12 14 19 26 26 20 17 21 23 23 28 31 31 34 40 46 47 44 40 38 37 35 27 24 24 15 9 13
35 34 33 33 32 31 31 30 29 29 30 30 29 27 26 26 23 18 17 17 16 18 21 21 21 23 24 26 26 27 29 31 30 30 30 28 26 25 25 25 24 23 22 24 25 24 21 19 18 17 18 19 20 19 15 13 13 12 10 11 12 16 22 26 22 14 11 14 17 25 31 31 31 33 37 43 45 42 38 35 31 24 22 28 27 17 15
37 36 35 34 32 31 30 29 28 27 28 28 27 26 25 25 23 19 16 15 15 17 19 20 20 22 23 24 24 25 28 29 29 30 31 29 27 25 24 23 23 23 24 26 27 28 27 24 24 22 20 19 20 18 15 12 11 11 11 11 13 18 23 26 29 28 25 24 25 30 32 32 34 34 33 35 38 41 42 36 31 27 22 27 34 28 22
38 37 36 34 32 31 30 29 27 26 27 27 26 25 23 23 23 22 19 16 13 16 18 19 19 20 21 21 20 20 21 23 26 28 29 29 26 25 24 22 22 22 23 25 27 28 29 29 30 29 24 23 22 19 17 13 8 10 11 10 14 21 25 26 29 33 34 34 35 36 35 34 36 37 37 35 33 36 42 42 41 36 26 25 35 36 32
38 37 36 35 33 31 30 29 27 25 25 26 26 24 22 22 21 20 21 18 15 14 16 17 18 18 18 19 19 18 16 16 19 22 25 26 24 22 23 23 23 22 22 24 24 25 25 27 29 28 26 27 26 24 22 16 12 13 10 7 11 19 26 28 30 33 33 33 35 38 39 37 36 36 36 36 34 35 39 43 46 44 36 33 36 37 37
37 36 35 34 33 32 31 29 27 25 23 23 25 24 22 22 22 20 20 22 20 18 17 18 20 19 18 19 20 19 18 17 17 18 19 21 21 21 21 21 22 23 24 25 25 24 23 24 26 26 26 27 27 27 25 19 16 15 10 4 5 12 21 25 27 31 34 33 33 37 39 39 39 38 35 33 32 34 37 39 40 42 45 46 43 40 41
32 31 30 29 29 30 31 30 27 25 23 22 24 25 23 22 22 21 21 22 21 19 19 21 22 21 19 19 20 19 19 19 20 19 19 20 19 19 19 20 22 24 25 25 26 26 26 26 25 24 24 25 26 25 24 22 19 18 13 2 3 6 15 18 21 25 29 33 34 35 38 40 41 42 39 35 31 31 35 38 38 39 42 45 45 45 46
28 27 27 26 26 27 29 29 27 25 24 23 23 24 24 22 22 21 23 23 21 19 18 19 21 21 20 20 20 19 19 20 21 21 21 20 18 18 18 20 23 25 26 26 26 26 28 28 26 24 24 26 24 22 22 23 21 20 17 5 5 6 8 10 15 18 22 28 30 31 36 40 41 44 44 42 38 35 35 36 36 37 37 39 44 47 46
28 27 26 25 25 25 26 27 26 24 24 24 24 24 23 23 22 21 23 24 22 19 17 18 20 20 19 19 19 18 18 20 21 22 22 21 20 20 19 18 20 23 25 26 26 27 27 27 26 26 27 27 26 23 23 23 22 21 20 11 10 11 8 8 9 12 18 23 24 26 29 28 31 40 45 44 43 42 40 38 36 34 33 34 39 39 35
28 26 25 25 24 22 23 26 25 22 21 22 23 24 24 23 22 21 23 25 24 20 18 18 19 19 18 19 20 18 18 19 20 21 23 23 22 21 20 19 20 21 23 24 25 25 24 24 25 28 29 28 25 23 23 26 26 24 24 22 17 15 13 13 10 9 14 17 18 20 18 14 20 32 37 39 42 42 41 41 40 38 36 35 35 30 23
26 25 24 24 24 22 22 24 24 23 21 21 21 22 23 23 22 21 22 25 25 23 20 19 18 18 17 17 19 19 19 20 21 21 23 24 22 22 23 23 22 22 22 22 22 21 20 21 24 27 28 27 24 23 25 27 29 26 27 30 24 17 16 16 13 12 14 15 13 12 10 15 28 32 29 31 36 38 39 40 40 40 40 39 38 33 26
25 24 23 23 23 23 23 23 23 23 21 20 20 20 21 22 21 21 21 24 26 24 22 20 19 18 17 17 19 20 19 20 22 24 25 24 22 23 24 24 24 23 21 21 20 18 18 19 21 23 26 25 25 28 29 29 30 28 27 30 27 17 16 16 15 14 13 11 8 7 8 17 30 34 30 29 30 31 34 37 38 38 38 38 37 34 30
24 23 22 22 23 23 23 23 23 21 19 20 19 19 19 20 20 19 20 23 24 23 22 21 18 17 16 16 18 19 17 17 21 25 26 25 24 24 25 25 24 22 21 19 18 17 17 16 16 18 21 22 23 27 30 30 29 29 28 28 24 16 17 16 13 11 9 9 9 10 11 14 22 29 30 30 31 31 30 32 33 32 33 34 33 31 31
21 21 21 21 21 22 22 22 21 19 18 19 19 18 17 18 18 18 18 21 23 23 22 21 19 18 19 17 17 18 16 15 19 23 25 25 25 25 27 27 25 22 21 20 17 15 15 16 14 13 15 17 17 19 24 27 25 27 31 28 23 19 18 15 10 10 11 10 9 9 9 10 17 24 27 28 30 31 30 31 31 30 28 28 29 31 31
20 20 19 19 19 20 19 19 18 18 18 19 19 17 17 17 18 18 18 20 23 22 18 15 15 16 16 13 13 17 17 15 18 20 22 25 26 26 27 29 27 23 22 21 18 15 14 17 15 13 13 16 16 15 17 19 17 21 30 30 25 23 21 15 13 14 13 10 8 9 9 10 16 23 26 26 27 29 29 27 28 30 27 24 27 31 31
20 19 19 18 18 18 18 17 17 17 17 18 19 17 16 16 17 18 19 21 23 23 17 13 14 15 14 11 9 12 16 16 17 18 19 21 24 26 28 27 26 24 22 21 19 15 14 17 18 16 14 15 16 15 14 15 13 18 31 36 32 25 19 15 16 17 15 11 9 13 14 13 17 23 26 25 26 28 25 19 20 27 26 23 26 29 29
20 18 18 17 17 17 16 16 16 16 16 17 18 17 16 15 15 17 21 23 26 25 18 16 20 21 19 17 13 13 15 16 17 17 16 16 19 24 26 24 21 21 21 20 18 15 14 17 20 20 16 14 15 15 15 16 16 19 31 39 36 29 22 17 17 17 15 12 10 13 16 15 19 23 24 24 24 25 23 18 20 26 26 24 25 26 26
18 18 18 17 16 16 16 15 15 16 15 16 17 17 16 16 16 18 22 24 27 26 19 16 20 20 18 18 18 16 16 17 17 16 14 13 14 17 21 21 18 16 18 18 15 14 15 16 19 20 18 16 16 14 15 18 18 19 28 37 36 32 27 22 19 18 15 12 11 11 12 14 18 21 22 22 22 22 24 25 25 26 27 25 25 23 23
17 17 18 17 16 15 15 15 15 14 14 15 16 16 16 17 17 19 22 23 26 26 20 17 19 18 17 19 19 17 18 18 17 15 13 11 11 13 14 16 16 16 16 15 12 12 15 16 19 20 17 17 17 14 14 18 18 18 24 32 37 36 29 21 18 16 13 9 7 7 9 13 16 17 20 24 24 23 26 28 27 28 30 30 29 27 25
18 18 17 17 16 15 14 14 14 14 14 14 16 16 16 16 16 19 21 22 25 25 18 15 17 18 18 20 19 18 19 17 15 15 15 12 11 11 11 11 13 14 14 13 12 11 11 14 19 20 17 16 15 12 11 15 18 19 20 24 31 36 32 25 19 13 9 6 5 7 11 13 14 15 18 23 24 22 24 27 27 27 28 29 29 28 26
19 18 18 17 16 15 14 14 14 14 13 14 15 16 15 14 16 19 21 22 25 23 18 15 16 16 17 19 20 19 19 17 16 18 17 13 11 12 12 11 10 11 12 12 12 10 9 10 14 17 17 15 14 13 12 13 16 19 20 21 23 28 33 35 26 13 8 8 7 4 8 13 15 17 19 20 20 19 21 25 27 28 27 27 29 29 27
17 18 17 16 15 14 13 13 13 13 12 13 14 14 13 13 15 18 20 21 23 22 19 17 17 16 15 16 18 20 21 21 20 18 16 13 12 12 12 11 9 10 12 13 13 12 10 8 10 14 15 14 13 13 13 14 16 19 21 22 22 23 29 34 28 13 6 5 3 10 24 29 28 30 32 31 28 27 26 28 30 32 31 30 30 30 29
16 17 16 14 14 13 12 12 12 12 12 12 13 13 12 12 14 17 19 20 21 21 18 15 13 12 14 17 20 23 23 21 19 18 16 14 11 10 10 10 9 9 12 14 14 13 11 9 9 10 11 11 11 10 10 13 16 21 23 20 20 24 28 30 29 22 14 12 13 17 27 35 36 36 37 36 35 34 32 32 32 33 32 32 31 30 29
15 16 15 13 12 12 12 11 11 12 12 12 12 13 13 14 16 18 18 18 19 21 18 10 7 11 17 21 23 23 21 19 20 21 19 14 9 9 10 11 10 11 12 14 14 13 12 11 8 5 6 10 10 7 7 11 14 21 24 20 19 25 29 31 32 30 21 15 14 16 21 27 31 32 33 34 34 32 30 30 31 31 30 30 29 27 25
14 14 13 11 11 11 11 11 11 11 11 11 12 14 14 15 17 18 19 18 18 20 17 7 6 11 19 20 20 21 22 21 21 21 16 11 9 10 12 13 11 12 14 14 12 12 11 10 8 4 4 7 7 5 5 7 12 19 25 25 24 26 27 29 33 33 28 24 22 18 16 20 24 26 26 28 30 29 27 26 25 25 25 24 24 22 19
12 12 11 10 10 10 9 10 10 10 10 11 12 14 15 16 17 17 17 16 15 16 14 6 5 10 16 16 17 21 22 19 19 18 14 10 10 11 13 12 10 11 11 9 8 7 6 6 7 6 3 5 7 7 6 6 10 17 24 27 26 24 22 25 32 35 33 33 33 29 22 19 22 24 22 21 22 23 22 20 18 19 20 19 19 19 16
11 10 10 10 9 8 8 8 8 9 10 11 12 14 14 14 13 13 12 12 12 13 13 8 5 9 12 12 15 19 19 18 17 16 13 10 10 10 12 12 11 11 10 8 6 6 4 7 9 7 4 2 6 7 7 8 10 13 20 26 27 25 24 28 35 37 34 32 32 35 32 24 19 19 19 18 18 18 17 15 13 14 16 15 16 17 14
10 9 9 9 8 7 7 8 8 9 10 11 12 13 11 9 8 8 9 9 10 11 12 9 5 7 9 11 14 16 16 16 16 14 12 11 9 9 10 10 10 11 12 10 8 6 4 9 10 7 4 1 3 3 5 10 10 8 13 23 27 27 27 31 35 36 34 31 31 33 33 30 26 23 20 18 18 18 17 16 14 14 14 13 14 14 10
9 9 9 8 7 7 7 8 9 10 11 11 11 9 6 3 5 7 7 8 8 8 8 5 2 6 8 9 12 14 14 16 16 14 12 10 8 8 8 8 9 12 13 12 10 5 4 8 8 6 4 1 1 1 2 7 10 9 11 18 23 25 27 32 36 34 32 33 34 32 29 28 27 25 22 20 19 18 17 16 16 16 15 14 13 13 9
8 8 8 7 6 7 7 9 10 12 12 11 9 5 2 2 4 7 6 6 6 5 4 3 2 6 8 9 10 12 14 15 15 12 10 9 9 9 8 8 9 11 13 13 10 5 5 6 7 5 2 1 1 1 1 3 7 8 9 12 17 24 29 33 33 30 29 33 35 32 30 30 29 25 22 20 18 16 13 13 12 12 12 12 13 13 13
9 8 7 6 7 7 8 10 12 12 10 8 6 5 5 6 6 6 5 4 4 5 5 3 4 9 11 11 10 11 12 12 11 10 10 10 10 9 9 10 10 10 13 15 11 6 5 6 7 5 2 1 2 3 3 3 3 6 8 10 15 23 29 28 26 26 29 32 32 31 30 28 26 23 20 18 16 14 12 11 10 9 9 9 8 8 9
9 7 7 7 8 8 9 10 10 8 6 5 4 5 7 6 5 5 4 2 5 7 5 2 2 7 11 13 12 12 12 11 11 10 10 9 9 9 9 11 11 11 13 14 10 6 6 8 8 5 4 3 4 4 4 8 7 6 10 14 17 22 24 23 24 30 33 31 29 29 29 25 22 21 21 19 18 17 16 14 13 12 10 9 8 8 8
8 6 6 7 7 7 7 7 5 3 2 3 3 4 3 2 2 5 5 3 5 6 4 2 2 3 9 13 13 12 12 11 10 10 9 8 9 10 11 11 10 10 11 12 10 8 8 9 8 7 6 5 5 5 4 9 11 10 14 19 23 25 26 25 25 27 28 25 23 25 26 25 24 24 23 21 19 19 18 18 16 14 13 12 10 9 8
6 5 5 4 4 4 3 2 1 1 0 2 4 4 2 1 3 4 6 6 5 5 4 4 4 4 9 13 14 12 11 9 9 9 9 9 11 12 12 12 11 10 11 12 11 10 9 10 9 9 8 8 8 7 7 11 13 14 15 19 23 26 26 25 23 22 21 20 20 20 19 19 19 18 16 14 12 12 13 13 12 10 10 10 9 8 8
6 5 5 5 4 3 3 2 2 3 4 4 5 4 2 1 1 3 6 7 5 4 5 5 4 6 10 13 13 11 10 9 9 10 10 11 13 14 13 12 10 11 12 13 12 11 11 11 11 11 11 11 12 13 13 14 16 16 15 16 17 18 18 18 17 14 12 13 17 17 14 12 13 12 11 10 7 6 6 5 4 3 4 6 7 9 10
6 6 6 7 7 7 7 6 6 7 7 5 3 2 1 1 3 4 6 5 2 3 5 4 3 6 9 11 12 11 11 11 11 11 12 13 14 15 14 10 9 11 12 12 13 14 14 12 12 13 14 15 17 18 17 16 18 17 16 16 16 16 15 15 14 11 10 12 15 16 13 12 10 8 6 5 3 2 2 1 2 5 7 9 11 12 13
7 8 8 8 8 9 8 7 7 7 6 4 2 1 1 2 2 2 2 3 4 5 5 4 3 6 8 9 10 11 13 13 13 13 14 15 15 15 13 10 10 12 14 14 15 16 15 13 13 16 18 19 20 20 18 16 16 15 15 15 15 15 15 15 14 12 11 11 11 11 9 9 8 6 5 5 5 5 6 7 8 10 11 13 14 16 17
8 8 8 7 7 7 7 7 7 7 6 6 6 5 6 7 7 7 8 7 7 7 6 5 3 4 5 6 9 13 15 15 14 14 15 15 14 13 12 11 12 13 16 16 15 16 16 16 16 18 20 20 19 19 18 18 17 16 16 15 14 13 13 13 12 10 9 8 8 6 5 5 4 4 5 7 8 9 10 11 12 14 15 16 17 18 18
8 8 8 8 8 10 10 9 10 9 9 8 9 9 9 9 9 8 8 8 9 8 6 4 3 2 3 5 8 12 16 16 15 14 14 13 13 12 12 13 14 16 17 16 14 15 17 19 19 20 20 18 17 18 18 19 18 17 15 14 13 12 11 11 9 8 7 6 4 3 4 4 5 6 7 9 10 11 12 14 15 16 18 19 19 20 20
10 10 11 12 12 13 12 12 11 11 10 9 10 9 9 10 9 7 7 8 8 8 7 4 4 2 3 6 7 10 15 18 16 14 14 14 13 13 13 15 16 15 15 14 15 18 19 19 20 21 20 17 17 17 18 17 16 16 14 13 12 11 10 9 7 6 4 4 4 4 5 7 8 9 10 11 12 13 14 16 17 18 19 20 21 21 21
13 13 14 14 13 13 12 11 10 10 10 10 10 9 10 10 9 8 8 7 7 7 6 4 3 2 7 11 12 13 16 17 15 14 15 15 14 15 16 17 15 13 14 17 19 20 21 21 21 21 21 19 18 18 17 16 15 14 13 12 10 8 7 6 5 4 3 4 5 6 8 9 10 11 12 12 13 14 15 15 16 16 17 17 18 18 19
13 13 13 12 12 11 11 10 10 10 9 9 9 9 9 9 9 9 9 7 7 7 5 3 4 5 11 14 15 14 14 14 13 13 15 15 15 15 16 15 14 15 18 21 20 20 21 22 23 22 21 20 19 17 16 15 14 13 11 10 8 7 6 5 5 5 5 5 6 7 7 8 9 10 11 12 12 12 12 12 12 12 12 13 13 14 14
10 10 10 10 10 10 10 10 11 11 10 10 10 9 8 9 9 9 9 9 9 9 7 5 7 9 10 14 14 13 11 12 12 13 14 14 14 14 13 14 17 20 22 22 20 20 21 23 23 22 21 19 18 16 15 14 13 12 10 9 7 6 5 5 6 6 6 7 7 7 8 8 9 9 9 10 10 10 10 10 10 10 10 10 10 11 11
8 8 8 9 9 9 9 10 11 12 12 11 10 8 8 10 10 9 9 11 12 11 8 8 11 12 9 10 11 11 10 11 12 13 13 12 11 12 15 17 18 19 20 20 20 20 21 22 22 22 21 19 17 16 14 13 12 11 9 8 7 7 7 7 7 8 9 9 9 9 9 9 9 9 9 9 9 9 9 9 9 9 9 9 9 9 9
7 7 9 11 12 11 11 12 12 12 11 9 8 8 9 11 10 7 6 9 11 10 8 8 11 10 6 8 9 9 10 11 11 10 9 8 9 14 17 17 15 16 18 18 19 20 21 22 22 22 20 18 17 15 14 12 12 11 10 9 9 9 9 9 9 9 9 9 9 9 10 10 10 9 9 9 9 8 8 7 7 7 7 7 7 7 6
12 13 16 18 18 18 18 18 18 17 13 9 7 7 8 9 7 6 6 8 10 10 8 8 9 8 6 8 11 11 10 9 9 9 7 8 12 16 15 12 12 14 16 16 18 19 20 20 22 22 21 18 16 15 13 12 12 11 10 10 9 9 9 9 8 8 8 8 8 9 9 9 8 8 8 9 9 8 7 6 6 6 6 6 6 6 6
17 19 21 23 23 23 23 21 21 21 18 13 9 7 6 5 6 9 11 11 11 9 8 8 10 10 9 9 12 13 11 10 10 9 7 7 9 11 9 9 12 14 14 16 20 21 19 19 20 21 19 17 15 14 13 12 11 10 9 9 9 8 7 7 6 6 6 6 7 7 7 7 7 7 7 8 8 8 7 6 6 6 6 6 6 6 6
21 22 23 23 23 23 22 20 21 23 24 21 16 11 7 6 9 12 11 10 9 9 8 8 10 12 13 13 13 12 11 11 11 10 8 7 8 9 11 14 16 17 17 20 22 22 20 19 19 19 17 15 14 13 12 12 11 10 9 8 7 6 6 6 6 6 6 6 6 6 6 6 7 7 7 6 6 6 6 6 6 6 6 6 6 6 6
24 23 22 22 21 20 20 21 23 24 25 25 22 17 12 10 11 11 10 8 9 9 8 9 10 12 13 13 12 12 12 13 13 13 13 12 13 15 18 20 21 21 22 22 21 20 19 18 17 17 16 14 13 12 11 10 10 9 8 7 6 6 6 7 7 8 8 8 8 7 7 7 7 7 6 6 6 6 6 6 5 5 6 6 6 6 6
23 22 22 21 20 19 20 22 22 22 22 23 23 21 17 15 15 14 12 10 9 8 9 10 11 10 11 13 13 14 15 17 18 18 18 19 19 21 23 22 22 22 21 20 19 18 17 16 15 15 14 13 11 10 9 8 7 7 6 6 6 7 8 8 9 10 10 10 10 10 9 8 8 7 7 6 5 5 5 5 5 5 5 5 5 5 5
21 20 19 19 19 18 17 17 18 18 18 19 19 18 18 17 16 15 13 11 9 8 8 8 8 8 11 14 15 15 16 18 20 21 21 21 21 21 21 20 19 19 18 17 16 15 14 14 14 13 12 11 10 8 6 5 5 5 5 6 6 7 8 9 9 10 11 11 11 10 10 9 8 8 7 7 6 5 4 4 4 4 4 5 5 5 5
Wind_Direction
298 297 295 293 292 291 289 289 289 289 289 288 286 285 284 282 280 279 274 270 267 264 263 260 254 251 248 245 243 241 240 240 237 235 235 235 235 236 238 240 239 240 243 246 249 251 255 257 253 250 248 236 215 196 190 196 204 210 215 215 220 227 225 223 227 232 235 237 236 233 232 230 229 229 228 225 221 219 221 226 224 219 214 208 215 244 239
296 295 293 291 289 288 287 286 287 289 289 289 288 286 284 282 281 278 275 272 268 263 260 256 251 251 249 244 240 236 234 235 232 231 232 232 231 231 232 234 236 236 239 241 242 243 247 254 252 246 246 236 214 207 211 218 219 217 216 214 211 216 219 218 220 232 234 231 229 229 228 225 225 228 229 228 227 226 226 226 227 227 219 212 216 232 225
294 292 290 288 287 287 286 286 287 290 290 291 293 292 289 287 287 283 276 272 267 258 255 253 247 246 246 244 241 237 234 233 230 229 230 227 224 226 228 231 234 235 236 239 241 240 238 246 250 243 239 232 219 215 218 222 227 223 220 230 235 234 230 222 213 212 221 220 218 222 224 226 227 229 229 229 228 226 224 221 219 222 220 218 222 227 225
291 290 289 289 289 289 289 290 290 292 292 292 294 295 294 292 290 285 275 268 263 256 254 252 247 244 246 247 245 241 239 237 233 230 231 228 223 225 229 229 229 231 231 233 238 238 235 237 241 238 233 226 223 219 214 213 222 226 233 252 258 252 244 233 224 222 227 230 229 229 230 231 233 234 234 232 228 226 227 224 219 220 217 219 226 229 230
293 293 293 293 293 293 292 291 290 291 291 290 291 292 292 291 289 287 282 273 259 252 250 249 245 244 247 248 245 243 243 242 238 234 234 234 230 230 231 227 223 225 228 231 235 237 234 233 236 239 234 226 226 224 213 211 230 239 242 265 264 247 237 233 231 231 234 240 241 239 237 235 236 236 236 235 231 226 225 224 225 226 219 223 232 232 233
297 297 296 295 294 292 290 287 286 287 288 288 288 289 288 286 283 284 283 276 264 253 248 246 242 240 246 250 246 239 235 233 234 232 231 233 231 228 228 224 222 224 228 233 237 237 236 234 235 240 240 236 239 236 223 227 254 251 246 279 272 243 232 230 229 229 233 240 243 242 240 239 239 239 237 237 235 230 226 227 229 229 226 232 236 234 237
298 297 295 294 292 289 287 285 284 284 287 288 287 286 286 283 281 280 277 274 270 265 258 252 247 241 246 254 252 244 235 229 228 225 222 224 225 224 223 220 220 225 229 235 240 238 239 239 236 237 240 242 246 244 236 239 248 238 236 310 311 243 236 233 229 229 231 235 239 242 242 241 240 240 239 237 237 236 233 232 233 233 234 239 241 240 243
296 296 294 294 293 290 287 285 284 283 285 286 286 285 285 283 281 279 275 271 272 271 266 261 257 250 249 255 255 248 242 237 234 227 220 217 215 218 221 218 219 225 229 235 241 240 239 242 238 236 238 241 246 248 244 243 243 230 221 240 14 256 250 243 234 235 238 238 240 241 242 242 240 240 240 237 236 237 234 232 233 233 235 238 239 240 243
294 293 293 292 292 292 291 288 285 283 282 282 283 284 285 284 282 280 276 273 271 270 266 264 263 258 253 254 254 248 243 241 239 233 227 221 216 217 222 223 225 229 233 237 242 242 241 242 241 238 242 242 242 245 243 240 245 237 220 210 3 326 292 267 244 242 247 245 244 243 243 242 240 238 239 236 235 237 237 234 232 231 232 232 231 233 238
293 291 291 291 290 291 293 292 289 285 281 279 279 281 282 282 280 279 277 275 271 269 264 261 262 261 257 255 253 246 240 240 241 239 232 224 221 221 223 229 231 232 235 239 243 244 244 245 244 242 246 245 238 238 239 238 246 242 222 233 314 327 322 307 281 261 257 254 252 248 242 238 236 237 238 238 237 238 240 240 238 238 238 234 231 233 237
293 291 289 288 288 286 287 291 290 287 282 278 277 278 277 276 274 274 273 273 272 271 266 261 261 260 257 256 255 248 237 232 236 240 235 225 222 225 229 238 241 238 237 240 243 245 247 247 244 243 245 243 233 234 241 243 248 246 227 232 274 309 310 306 309 289 273 275 268 250 233 225 236 242 243 242 240 240 240 242 244 245 246 245 246 247 244
293 291 287 285 285 282 282 288 290 287 284 279 276 275 274 271 269 266 266 269 271 271 268 266 264 261 256 254 255 252 241 232 231 236 237 229 223 226 231 236 239 240 242 244 244 246 245 240 239 241 240 235 229 234 243 246 248 246 233 230 249 292 310 303 304 301 291 289 272 238 221 233 242 245 246 244 243 243 243 246 249 249 248 249 251 252 246
295 292 287 283 281 279 279 284 287 286 281 277 277 275 272 268 266 262 260 263 267 270 270 267 264 263 262 257 255 254 247 237 233 235 237 233 222 220 226 230 232 236 242 247 247 246 243 235 232 235 235 233 235 239 243 247 246 241 234 230 238 273 312 309 302 300 291 279 252 226 245 249 243 243 245 243 241 239 237 239 243 245 246 246 249 249 247
298 294 288 281 278 278 278 279 283 283 276 273 276 277 272 269 266 263 260 260 263 266 267 267 266 267 267 260 257 258 252 242 237 235 236 235 226 219 223 228 231 236 245 252 253 249 245 239 233 233 234 235 238 242 245 248 245 237 232 225 225 255 301 307 297 293 286 275 258 249 261 254 237 235 238 239 240 238 236 238 241 243 242 241 244 246 245
299 296 290 282 278 279 278 276 277 276 270 269 272 272 270 269 268 264 261 261 263 264 265 268 268 265 263 260 258 259 256 245 239 236 234 234 231 224 225 230 232 240 251 258 263 259 245 237 235 233 228 225 229 239 244 245 244 237 231 219 213 237 276 293 292 291 295 294 278 257 254 244 229 228 230 233 238 241 241 239 238 238 238 236 239 243 244
300 298 294 287 281 279 277 276 275 271 266 265 266 265 265 266 268 268 265 264 265 264 265 268 267 261 257 256 256 256 252 244 241 239 232 231 232 226 225 231 234 240 251 259 265 264 242 229 231 234 229 226 229 235 236 236 237 228 220 213 210 230 258 280 289 292 301 305 275 248 245 238 230 227 225 227 233 235 232 227 225 230 232 231 234 238 241
300 298 294 288 282 279 276 274 272 268 264 263 261 259 259 263 269 273 274 272 267 261 254 255 262 259 251 246 245 249 248 241 240 241 232 228 231 227 226 231 235 238 246 255 261 260 240 226 227 233 240 237 231 230 229 226 221 210 208 209 212 223 246 275 283 281 292 307 280 253 249 238 223 219 219 221 223 219 213 208 213 221 224 224 229 234 237
302 299 294 287 282 278 275 272 270 265 262 261 259 257 255 259 267 272 274 275 272 264 255 249 254 256 254 254 251 245 244 240 237 241 236 228 229 228 226 229 232 234 240 247 253 254 243 231 226 229 243 245 231 228 229 225 226 219 209 207 210 217 232 259 274 273 280 300 290 257 246 231 215 211 212 212 206 200 199 202 210 214 217 219 222 224 227
302 299 293 288 284 279 273 268 264 260 258 256 255 255 252 253 259 266 270 275 276 270 260 250 252 255 256 255 249 242 242 241 237 239 240 233 230 229 226 224 223 224 228 234 242 244 239 232 223 225 240 243 228 224 225 223 231 233 216 207 203 206 221 247 268 270 270 285 287 263 244 226 214 211 205 197 191 192 201 208 208 205 202 198 194 194 196
301 299 295 290 284 278 272 267 263 257 255 254 252 252 251 252 259 267 271 277 279 272 261 253 254 253 250 249 246 241 240 238 236 239 241 236 230 223 218 216 215 216 218 222 229 233 230 226 219 220 233 233 220 217 223 223 227 230 221 213 207 205 211 233 255 258 257 272 286 267 242 220 206 199 193 189 192 199 203 200 194 189 183 178 176 178 179
299 301 299 291 282 276 270 267 263 257 254 256 255 254 254 256 262 269 273 276 277 273 266 257 252 248 245 244 241 239 237 232 232 240 240 233 228 217 202 198 207 210 206 208 216 221 221 219 216 217 229 231 217 210 214 215 217 221 221 218 214 211 210 218 233 247 249 261 289 272 246 222 193 179 184 189 193 196 193 184 175 170 169 169 171 170 171
293 298 299 292 283 276 269 263 259 255 253 256 258 258 260 263 267 273 276 276 275 273 268 258 249 241 236 235 234 236 236 228 223 233 236 231 227 217 198 189 198 196 187 193 205 208 202 204 207 214 227 230 217 205 201 201 206 210 210 210 210 211 212 215 224 240 245 247 271 251 180 166 157 152 156 165 169 167 165 163 156 151 152 160 162 158 159
287 295 298 292 281 274 268 261 256 253 251 253 258 262 264 267 271 275 278 278 276 275 270 262 252 238 227 230 232 231 230 224 218 224 232 229 221 211 197 189 188 185 182 188 199 206 205 199 200 210 221 224 214 202 197 197 197 194 195 199 201 201 204 209 214 216 187 171 155 118 120 122 124 127 127 131 137 138 140 143 142 140 141 147 150 150 149
288 295 296 290 279 269 265 262 256 253 252 252 259 262 261 264 269 271 274 276 276 277 275 265 251 235 221 221 225 225 225 223 216 215 221 221 208 193 191 190 181 178 185 189 194 203 206 203 208 217 219 216 216 208 189 187 193 191 188 190 192 191 195 203 208 206 185 153 139 127 120 118 120 123 123 125 128 130 133 136 137 137 137 137 139 140 141
292 297 295 289 280 268 261 257 253 254 257 256 261 265 264 265 269 270 273 274 276 281 282 265 224 220 219 218 221 225 224 219 211 209 212 209 185 168 186 194 182 175 183 184 183 189 192 187 192 219 221 212 219 226 193 175 183 190 188 185 185 186 192 201 207 210 208 189 162 143 130 126 125 124 126 129 131 132 131 132 132 134 134 134 133 133 134
294 298 292 286 281 271 261 255 255 260 265 264 267 271 269 266 267 270 274 275 278 283 284 265 193 218 227 221 220 224 223 215 209 207 208 200 178 177 192 197 187 184 191 187 176 175 175 164 148 145 194 202 207 238 233 187 179 187 189 187 186 185 189 198 204 207 209 204 191 176 160 149 144 140 136 137 140 142 141 137 136 137 137 136 136 136 136
297 298 293 287 282 273 261 256 257 263 269 272 274 273 270 268 268 271 275 277 280 282 281 264 197 222 231 223 216 221 222 214 206 204 205 201 191 192 201 203 197 204 213 206 189 184 171 133 116 112 129 182 193 210 228 205 187 190 193 193 191 187 188 193 196 200 206 208 207 206 199 173 157 154 152 149 151 153 154 154 152 149 147 145 146 147 149
293 293 295 290 281 273 264 259 261 266 273 277 275 273 273 274 274 276 279 280 279 279 281 277 234 221 223 214 214 220 218 209 202 200 201 202 198 198 206 208 207 217 226 220 212 213 176 112 99 93 86 171 211 213 215 211 200 192 194 196 193 190 191 191 192 198 208 213 215 217 217 211 196 181 175 176 179 179 181 186 183 172 170 174 176 177 181
292 290 296 294 283 272 266 264 267 272 275 276 275 277 282 286 286 285 285 284 280 279 284 286 245 206 202 202 210 216 210 200 197 196 196 200 203 206 212 215 213 217 219 214 213 212 149 103 98 96 97 155 235 229 211 215 216 207 204 203 195 191 193 193 193 199 205 207 210 216 218 219 214 204 199 207 210 202 201 212 214 204 201 205 201 199 208
297 293 295 294 283 273 269 271 274 276 276 277 280 282 285 296 299 294 288 285 284 283 290 301 211 185 191 196 204 207 197 185 185 188 192 200 213 218 221 222 218 213 212 211 208 193 128 107 110 115 115 143 235 303 252 229 222 219 223 214 199 191 192 193 194 199 200 198 202 208 211 212 211 206 204 210 209 203 205 216 221 219 221 227 224 220 226
306 297 293 291 284 277 276 277 279 279 277 276 277 271 212 196 273 288 289 290 294 295 310 343 95 148 165 177 186 189 184 178 179 189 199 208 219 223 220 214 211 210 210 207 196 165 138 138 138 136 127 123 169 163 222 225 207 200 214 215 196 186 186 190 194 199 195 189 191 195 198 202 207 204 199 196 194 197 205 210 210 212 215 221 226 228 230
310 298 289 285 281 279 280 280 281 282 282 276 264 232 196 204 247 280 298 320 337 343 342 354 92 125 141 156 167 170 173 178 186 196 206 212 217 220 209 196 192 197 201 198 186 163 164 166 155 152 174 199 191 175 138 115 149 182 190 188 182 182 185 188 195 197 187 180 180 183 185 190 197 198 196 189 182 179 181 179 176 177 179 183 191 202 217
311 293 281 280 279 279 284 287 286 285 281 270 247 221 212 223 261 306 328 315 301 308 312 317 103 123 138 153 162 162 168 180 188 192 201 210 210 202 190 184 185 189 189 184 176 171 177 168 159 169 192 197 212 212 139 101 106 151 162 156 161 172 176 178 184 184 177 170 173 177 175 176 183 185 181 175 169 168 169 169 168 167 165 166 171 183 202
325 308 296 295 293 291 293 295 296 296 284 258 218 201 213 244 348 1 359 331 283 283 290 310 342 102 135 146 154 157 163 172 176 179 189 193 184 178 178 178 180 182 179 173 169 172 174 167 167 180 186 178 196 210 145 111 118 138 142 137 140 147 151 154 161 165 160 159 169 172 164 161 168 172 169 168 169 173 177 180 183 185 187 188 191 200 216
346 347 343 342 331 323 325 328 331 346 281 178 160 156 153 64 34 6 345 329 303 292 304 324 346 58 109 124 134 142 150 158 160 162 170 172 168 166 168 167 165 169 174 172 168 167 169 169 169 173 175 170 169 164 134 117 123 133 132 128 130 134 138 142 145 145 143 148 161 165 156 150 153 152 146 146 157 169 178 186 194 203 211 215 221 233 246
17 22 30 37 38 42 51 53 65 97 118 134 143 144 142 156 241 282 296 299 299 313 332 345 21 72 95 111 124 133 141 151 156 155 156 161 159 153 150 154 162 168 168 165 162 163 168 170 169 169 167 155 144 140 132 123 124 125 121 117 119 125 130 136 137 134 130 135 144 147 139 127 123 120 112 111 125 145 159 174 193 224 250 258 261 263 265
46 56 63 67 69 68 68 74 86 96 104 113 130 150 159 203 238 256 274 287 319 11 6 8 59 96 102 111 122 132 137 145 152 153 152 151 147 142 142 152 164 163 157 157 162 165 166 171 174 170 160 145 135 133 127 120 119 118 110 103 106 114 121 126 125 118 112 117 125 127 117 98 91 94 95 95 116 149 149 185 278 281 279 278 278 278 278
75 73 66 66 69 69 70 82 93 95 91 90 97 122 92 80 79 85 82 66 51 33 15 15 80 114 114 113 122 133 137 140 143 147 147 145 141 139 142 150 158 156 151 153 162 163 163 169 173 163 151 142 137 132 125 117 114 111 107 106 108 111 114 115 110 101 92 92 96 93 78 62 53 41 22 359 337 325 324 320 311 301 294 290 287 284 282
74 65 56 55 62 68 76 90 97 93 87 87 89 89 85 79 76 75 72 61 47 35 23 19 55 111 121 123 131 137 138 137 139 145 148 146 143 143 146 149 154 153 147 148 158 162 157 156 157 150 141 137 133 129 125 120 113 106 104 105 105 103 102 101 97 89 80 76 73 61 41 29 18 347 318 309 307 307 306 303 298 294 290 288 285 282 281
51 51 58 65 71 76 83 89 87 82 79 80 83 85 83 80 78 72 62 55 49 42 37 25 8 23 102 120 127 134 137 137 141 147 150 148 147 151 154 153 150 146 141 142 155 161 153 147 144 140 136 136 133 128 124 120 116 112 110 108 104 101 100 98 96 91 84 76 66 38 8 352 332 312 303 300 299 296 294 292 291 290 290 289 289 288 288
58 64 70 74 76 78 79 78 73 70 69 71 75 76 74 74 78 75 68 63 50 34 35 34 357 339 131 118 97 108 128 136 138 142 147 150 151 153 157 157 153 143 135 139 150 154 148 140 133 130 132 135 133 124 117 115 116 116 116 114 111 108 104 100 96 90 76 50 22 359 341 327 317 310 306 302 298 296 294 292 292 292 292 292 292 293 293
75 76 75 75 75 74 73 73 71 70 72 75 76 75 74 77 80 75 68 62 42 26 34 46 25 76 130 114 87 89 115 127 129 134 141 147 150 152 156 160 156 142 135 142 149 149 142 133 126 126 129 129 126 120 118 118 119 117 115 114 113 107 100 92 80 61 32 4 350 337 326 318 314 311 309 306 303 301 299 297 296 295 294 294 295 295 296
80 81 80 80 79 74 70 71 69 67 70 76 76 75 76 79 80 76 70 59 38 32 45 60 51 83 114 108 89 88 109 121 123 132 141 145 147 151 153 153 151 146 145 147 147 143 137 131 128 129 128 125 123 123 122 120 118 116 112 109 104 94 81 67 49 32 13 354 342 333 326 322 320 317 316 316 314 311 309 306 303 301 299 299 299 299 298
77 80 80 78 78 75 72 72 72 73 76 79 81 82 86 89 89 87 84 75 63 63 77 74 45 50 90 107 97 91 106 121 128 138 145 146 146 148 147 149 153 154 151 148 144 139 134 132 131 132 131 127 125 124 122 117 114 111 106 102 97 84 67 51 36 25 18 10 3 357 351 346 341 336 332 328 323 321 319 316 313 311 310 310 309 308 307
65 73 78 77 77 75 72 74 75 73 72 72 76 86 101 106 105 101 95 87 79 73 70 52 34 36 71 112 110 99 110 130 141 147 150 151 153 151 145 146 150 149 142 137 137 135 132 132 135 136 134 130 126 122 117 111 105 99 92 85 77 66 53 42 33 27 22 17 13 10 7 2 358 354 350 345 340 337 333 328 326 326 326 325 325 324 323
65 74 80 80 79 76 73 72 69 68 69 71 74 84 100 110 114 113 101 88 79 68 50 33 29 38 78 131 131 117 124 141 148 144 139 140 143 143 141 140 143 139 132 130 134 137 137 139 141 139 134 130 126 120 113 105 97 89 81 74 67 58 50 42 35 29 23 19 17 17 15 13 10 7 5 3 1 357 351 347 346 348 348 348 348 346 340
71 73 74 74 70 68 69 66 60 60 68 81 85 91 107 121 127 117 90 72 67 66 57 41 40 53 98 142 142 134 137 144 139 133 134 135 132 132 135 137 135 132 131 133 138 142 143 142 140 137 133 128 123 118 111 103 95 88 82 76 70 63 56 49 41 34 28 25 23 21 19 17 17 16 15 16 18 17 13 7 2 2 4 6 5 2 357
79 74 71 69 64 62 63 62 54 53 64 83 104 112 110 95 79 77 73 64 62 68 67 58 62 75 89 106 115 123 133 134 122 120 136 142 123 114 114 115 115 117 126 137 139 137 135 134 133 132 128 124 120 115 109 102 96 90 85 79 72 65 59 53 46 39 34 29 24 21 18 14 13 13 15 17 22 25 25 22 15 11 7 4 2 1 359
84 76 71 69 65 60 61 61 54 50 57 72 93 110 108 75 63 66 66 63 66 70 65 63 77 86 85 84 92 109 126 128 119 114 120 121 108 102 104 106 106 110 122 132 132 129 128 131 130 126 122 119 116 111 106 100 96 91 85 78 72 65 57 49 42 35 29 23 17 14 10 7 5 5 7 8 10 12 14 16 16 15 12 8 5 4 1
74 73 70 68 64 57 54 55 55 52 54 65 79 91 92 80 71 66 64 71 81 82 77 78 84 88 89 90 89 89 93 101 105 107 107 106 106 107 107 106 108 115 124 128 129 128 131 132 128 123 122 121 116 110 106 102 97 92 86 78 69 58 47 39 33 28 22 17 12 8 5 2 1 360 358 357 357 356 356 357 359 1 1 359 1 3 4
63 63 62 61 57 52 48 49 51 51 52 58 68 74 72 67 63 59 57 66 81 92 98 102 103 101 100 97 90 81 81 87 92 95 98 101 104 106 106 108 113 120 126 129 131 132 133 132 130 129 129 126 119 112 107 101 94 89 82 71 59 48 39 33 29 26 22 17 13 9 6 2 359 357 355 353 352 351 350 346 341 335 333 333 338 347 353
55 54 55 55 54 53 52 52 53 52 50 52 59 63 62 59 57 53 51 57 73 86 97 111 121 118 105 98 96 95 93 90 89 91 93 94 95 99 103 107 113 120 125 129 132 134 135 136 137 137 135 132 127 123 115 103 90 78 66 56 47 40 34 31 28 24 19 15 14 11 9 6 2 358 353 351 352 354 357 354 345 331 317 310 313 322 330
Height
3056 3054 3053 3052 3051 3049 3048 3046 3045 3043 3043 3043 3044 3044 3043 3042 3043 3044 3042 3042 3043 3043 3042 3042 3042 3041 3042 3043 3044 3044 3045 3046 3048 3050 3050 3051 3053 3054 3054 3056 3058 3059 3060 3062 3063 3064 3064 3063 3064 3066 3066 3067 3069 3070 3071 3072 3072 3073 3073 3075 3077 3079 3080 3082 3083 3084 3085 3087 3090 3091 3092 3094 3095 3094 3096 3098 3099 3100 3102 3103 3107 3109 3108 3110 3114 3111 3110
3051 3050 3048 3047 3046 3045 3043 3042 3041 3040 3038 3038 3039 3039 3038 3037 3039 3040 3039 3038 3039 3039 3038 3038 3037 3037 3038 3038 3039 3040 3041 3041 3043 3045 3046 3047 3049 3050 3051 3052 3054 3056 3057 3059 3059 3061 3061 3060 3061 3063 3063 3064 3066 3068 3069 3069 3070 3071 3071 3072 3074 3075 3076 3078 3081 3081 3082 3084 3085 3085 3086 3088 3088 3088 3090 3092 3095 3098 3100 3101 3104 3103 3102 3106 3109 3106 3107
3046 3045 3043 3042 3041 3040 3039 3038 3038 3036 3035 3034 3035 3034 3034 3033 3034 3036 3035 3035 3035 3035 3034 3033 3033 3033 3033 3033 3035 3036 3037 3037 3039 3041 3042 3043 3045 3046 3047 3049 3051 3052 3054 3055 3055 3057 3058 3058 3058 3059 3060 3061 3063 3065 3066 3067 3068 3069 3070 3071 3071 3071 3071 3073 3075 3075 3076 3076 3076 3077 3080 3082 3083 3085 3086 3088 3091 3094 3096 3098 3098 3096 3097 3101 3102 3101 3106
3041 3040 3039 3038 3037 3037 3036 3035 3035 3034 3032 3032 3032 3031 3031 3030 3030 3031 3032 3032 3032 3031 3030 3030 3030 3030 3030 3030 3031 3032 3033 3034 3036 3037 3038 3039 3041 3042 3044 3046 3048 3049 3050 3050 3051 3052 3054 3055 3054 3055 3057 3059 3060 3062 3063 3065 3066 3067 3068 3068 3067 3066 3065 3067 3068 3068 3069 3070 3071 3074 3077 3079 3080 3081 3083 3085 3088 3090 3093 3094 3091 3091 3095 3096 3096 3100 3104
3037 3036 3035 3034 3034 3033 3033 3032 3032 3031 3029 3028 3028 3028 3028 3028 3027 3027 3028 3029 3029 3028 3027 3027 3027 3027 3027 3028 3028 3029 3030 3031 3032 3034 3034 3036 3037 3039 3040 3043 3044 3046 3046 3047 3047 3048 3050 3051 3050 3052 3055 3056 3057 3059 3061 3062 3063 3064 3064 3064 3063 3061 3060 3061 3062 3063 3065 3067 3070 3072 3074 3075 3076 3078 3080 3081 3084 3086 3087 3086 3085 3089 3093 3090 3091 3098 3101
3033 3032 3031 3030 3030 3029 3029 3028 3028 3028 3026 3025 3025 3025 3025 3025 3025 3024 3025 3025 3026 3026 3025 3025 3025 3025 3025 3024 3025 3027 3028 3029 3029 3030 3031 3032 3034 3035 3037 3039 3041 3043 3043 3043 3043 3044 3046 3047 3047 3049 3052 3053 3054 3055 3057 3059 3060 3061 3061 3059 3058 3057 3056 3056 3058 3059 3061 3064 3066 3067 3069 3071 3073 3074 3076 3078 3080 3081 3081 3081 3082 3086 3086 3084 3089 3095 3096
3029 3028 3027 3026 3025 3025 3024 3024 3024 3024 3023 3022 3022 3021 3021 3021 3021 3022 3022 3021 3022 3023 3023 3022 3022 3022 3023 3022 3023 3024 3025 3026 3026 3027 3028 3029 3031 3032 3034 3036 3038 3039 3039 3039 3039 3041 3042 3043 3045 3047 3049 3050 3051 3052 3054 3056 3057 3058 3058 3056 3055 3055 3055 3055 3055 3055 3057 3059 3061 3063 3065 3067 3069 3070 3072 3074 3075 3076 3077 3078 3080 3082 3082 3083 3089 3091 3091
3024 3023 3022 3021 3021 3020 3020 3020 3020 3020 3020 3020 3018 3018 3018 3018 3018 3018 3018 3017 3018 3019 3019 3019 3019 3019 3021 3020 3020 3021 3022 3023 3023 3024 3025 3026 3028 3030 3031 3033 3034 3035 3035 3036 3036 3038 3039 3039 3041 3044 3045 3046 3047 3048 3050 3052 3054 3055 3055 3054 3054 3054 3054 3054 3055 3055 3054 3055 3058 3059 3061 3063 3064 3065 3067 3069 3071 3072 3073 3075 3076 3078 3078 3081 3085 3085 3085
3020 3019 3019 3018 3017 3016 3016 3015 3015 3016 3016 3016 3015 3014 3014 3014 3014 3014 3014 3013 3015 3016 3016 3016 3015 3016 3017 3017 3017 3018 3019 3019 3020 3021 3022 3024 3026 3027 3028 3029 3030 3031 3032 3033 3033 3034 3035 3035 3038 3041 3042 3042 3044 3045 3046 3048 3050 3051 3051 3051 3051 3052 3052 3052 3054 3053 3051 3052 3055 3056 3057 3059 3060 3060 3061 3064 3066 3067 3069 3070 3072 3073 3075 3077 3079 3078 3079
3016 3015 3015 3014 3014 3013 3013 3012 3011 3012 3012 3012 3012 3011 3011 3011 3011 3011 3010 3009 3011 3012 3013 3013 3013 3013 3014 3014 3014 3015 3016 3017 3017 3018 3019 3021 3023 3023 3024 3026 3027 3028 3029 3029 3030 3030 3031 3033 3036 3038 3038 3038 3041 3042 3043 3045 3047 3048 3048 3048 3049 3051 3051 3052 3052 3051 3049 3050 3052 3053 3055 3055 3052 3053 3056 3059 3061 3063 3065 3067 3068 3070 3072 3073 3073 3073 3077
3012 3011 3011 3011 3010 3010 3010 3009 3008 3008 3008 3008 3008 3008 3008 3008 3007 3008 3007 3006 3006 3009 3010 3010 3010 3010 3011 3011 3011 3012 3013 3014 3014 3014 3015 3017 3019 3020 3022 3023 3023 3024 3025 3026 3026 3027 3029 3031 3033 3033 3034 3035 3037 3039 3040 3041 3043 3045 3046 3047 3048 3049 3050 3051 3051 3049 3048 3048 3049 3051 3051 3048 3046 3048 3052 3055 3056 3059 3061 3062 3064 3066 3068 3069 3070 3073 3076
3008 3008 3007 3007 3007 3006 3006 3006 3005 3005 3004 3004 3004 3004 3004 3004 3004 3004 3004 3003 3003 3005 3006 3007 3007 3007 3008 3008 3008 3008 3010 3011 3011 3011 3011 3014 3017 3018 3019 3020 3020 3021 3022 3022 3023 3025 3026 3028 3029 3030 3030 3032 3034 3036 3036 3037 3039 3041 3043 3045 3046 3046 3047 3048 3048 3047 3046 3045 3047 3048 3045 3042 3043 3046 3048 3050 3052 3055 3057 3058 3059 3061 3063 3065 3067 3069 3072
3005 3004 3004 3003 3003 3002 3003 3003 3002 3002 3001 3001 3001 3000 3000 3000 3000 3001 3001 3000 3000 3001 3003 3003 3004 3004 3005 3005 3005 3005 3006 3007 3008 3008 3008 3010 3013 3015 3015 3016 3017 3018 3019 3019 3021 3023 3023 3024 3026 3026 3027 3029 3031 3032 3032 3033 3035 3038 3040 3041 3043 3044 3045 3046 3045 3045 3044 3043 3044 3044 3041 3039 3041 3042 3043 3046 3048 3050 3052 3053 3054 3056 3058 3059 3062 3065 3068
3001 3000 3000 3000 2999 2999 2999 2999 2999 2999 2998 2998 2998 2998 2997 2997 2997 2997 2998 2997 2997 2998 2999 2999 3001 3002 3001 3002 3002 3002 3003 3004 3004 3004 3005 3007 3010 3011 3012 3013 3014 3015 3016 3017 3018 3020 3021 3021 3022 3023 3024 3026 3027 3027 3028 3030 3031 3034 3037 3038 3040 3043 3045 3044 3043 3042 3041 3041 3041 3040 3039 3037 3036 3037 3039 3042 3043 3045 3047 3049 3049 3051 3053 3055 3057 3061 3063
2998 2997 2996 2996 2996 2996 2996 2996 2996 2996 2995 2995 2995 2995 2995 2995 2994 2994 2995 2994 2994 2995 2996 2996 2998 2998 2998 2998 2999 2999 3000 3001 3001 3001 3003 3004 3006 3008 3009 3009 3011 3013 3013 3014 3015 3017 3018 3019 3019 3020 3021 3021 3023 3024 3025 3026 3027 3029 3033 3034 3036 3041 3043 3042 3041 3040 3040 3040 3039 3039 3037 3034 3033 3033 3035 3037 3039 3041 3044 3045 3045 3046 3048 3051 3053 3056 3059
2995 2994 2993 2993 2993 2993 2993 2993 2993 2993 2992 2992 2992 2993 2993 2993 2992 2992 2992 2992 2991 2992 2993 2994 2995 2995 2995 2995 2996 2996 2996 2998 2998 2998 3000 3001 3002 3004 3005 3006 3008 3010 3011 3011 3013 3014 3015 3016 3017 3017 3017 3018 3020 3021 3021 3022 3023 3025 3029 3031 3034 3038 3040 3040 3039 3038 3038 3038 3038 3037 3035 3031 3030 3031 3031 3033 3035 3037 3040 3041 3039 3041 3044 3047 3049 3052 3054
2992 2992 2991 2990 2989 2989 2989 2989 2990 2990 2990 2989 2989 2990 2991 2991 2990 2990 2990 2989 2988 2988 2991 2993 2992 2992 2992 2993 2993 2993 2994 2994 2995 2995 2996 2998 2999 3001 3002 3004 3006 3008 3009 3009 3010 3011 3013 3014 3014 3015 3015 3016 3017 3018 3017 3019 3020 3021 3024 3027 3029 3033 3037 3038 3037 3036 3036 3036 3036 3035 3032 3030 3029 3028 3028 3030 3031 3034 3036 3036 3034 3037 3041 3043 3045 3048 3050
2989 2989 2988 2987 2987 2987 2986 2986 2987 2986 2987 2987 2986 2987 2988 2988 2988 2988 2987 2987 2985 2985 2988 2991 2990 2989 2990 2991 2991 2992 2991 2992 2992 2993 2993 2995 2997 2998 3000 3002 3003 3005 3006 3007 3008 3008 3010 3011 3012 3012 3013 3014 3015 3015 3014 3015 3016 3016 3019 3022 3024 3029 3035 3037 3036 3035 3035 3034 3034 3033 3030 3028 3027 3026 3026 3028 3030 3031 3031 3030 3030 3034 3037 3038 3041 3044 3046
2987 2986 2985 2985 2984 2984 2984 2984 2984 2984 2984 2984 2984 2985 2985 2986 2986 2986 2985 2984 2982 2982 2985 2987 2986 2986 2988 2988 2988 2989 2989 2989 2990 2991 2991 2993 2994 2995 2997 2999 3001 3002 3003 3004 3005 3006 3007 3008 3009 3010 3011 3012 3013 3013 3012 3012 3013 3014 3016 3017 3019 3025 3033 3036 3035 3034 3033 3033 3032 3031 3028 3026 3024 3024 3025 3027 3027 3027 3026 3026 3029 3031 3033 3035 3038 3041 3043
2985 2984 2983 2982 2982 2982 2982 2981 2981 2981 2982 2982 2982 2983 2983 2983 2984 2983 2982 2982 2980 2978 2981 2983 2983 2984 2985 2984 2985 2987 2987 2987 2988 2989 2990 2991 2992 2994 2995 2997 2998 2999 3001 3002 3003 3004 3004 3005 3006 3008 3010 3010 3011 3011 3010 3010 3011 3012 3013 3014 3016 3021 3029 3034 3034 3033 3031 3030 3030 3028 3025 3023 3022 3022 3023 3024 3024 3023 3024 3025 3027 3028 3030 3033 3036 3039 3042
2982 2981 2981 2980 2979 2979 2979 2979 2979 2979 2979 2980 2980 2980 2981 2981 2981 2980 2980 2980 2978 2976 2978 2980 2980 2980 2981 2982 2983 2984 2984 2985 2987 2988 2988 2989 2990 2991 2993 2994 2995 2997 2998 3000 3001 3002 3002 3003 3004 3006 3007 3008 3009 3009 3008 3009 3010 3010 3012 3015 3016 3019 3024 3029 3032 3031 3029 3028 3028 3026 3022 3020 3020 3020 3022 3023 3023 3023 3024 3024 3025 3027 3030 3032 3034 3037 3040
2980 2979 2978 2977 2977 2977 2977 2977 2977 2977 2977 2977 2977 2978 2979 2979 2979 2978 2978 2977 2976 2974 2975 2976 2976 2977 2978 2979 2980 2981 2982 2983 2985 2985 2985 2987 2989 2990 2991 2992 2993 2994 2996 2997 2998 3000 3001 3001 3003 3004 3005 3006 3006 3006 3007 3007 3008 3009 3011 3013 3014 3016 3019 3024 3028 3030 3027 3026 3026 3024 3020 3019 3019 3020 3021 3023 3023 3024 3026 3026 3025 3027 3029 3032 3034 3036 3040
2977 2977 2976 2975 2974 2974 2974 2974 2975 2975 2975 2975 2975 2976 2977 2977 2977 2976 2975 2975 2973 2971 2971 2972 2972 2974 2975 2977 2978 2978 2978 2980 2981 2983 2984 2986 2987 2988 2990 2991 2992 2993 2994 2995 2996 2998 2999 3000 3000 3001 3003 3003 3003 3004 3005 3006 3006 3007 3009 3010 3012 3014 3016 3021 3025 3027 3027 3026 3028 3026 3022 3020 3020 3021 3022 3023 3024 3025 3027 3028 3028 3028 3030 3033 3035 3037 3041
2975 2974 2973 2973 2972 2972 2972 2973 2973 2973 2974 2974 2974 2974 2975 2975 2975 2974 2974 2973 2971 2969 2968 2969 2970 2972 2973 2974 2974 2974 2975 2978 2980 2982 2982 2983 2985 2987 2989 2990 2991 2992 2992 2993 2995 2996 2997 2998 2998 2999 3000 3001 3001 3003 3004 3004 3003 3004 3006 3008 3010 3012 3014 3018 3020 3023 3024 3026 3028 3029 3026 3023 3023 3024 3025 3025 3026 3028 3029 3031 3031 3032 3033 3035 3037 3039 3042
2973 2972 2971 2970 2970 2970 2970 2971 2971 2972 2972 2972 2972 2972 2973 2974 2973 2972 2972 2971 2970 2968 2966 2966 2968 2969 2969 2969 2970 2972 2974 2976 2977 2979 2980 2982 2985 2987 2987 2988 2989 2990 2991 2992 2993 2994 2995 2995 2996 2997 2999 2999 3000 3001 3002 3002 3001 3002 3003 3005 3006 3008 3011 3014 3016 3019 3022 3025 3027 3029 3029 3027 3026 3027 3028 3028 3029 3031 3032 3033 3034 3035 3036 3037 3038 3040 3043
2970 2970 2969 2969 2968 2968 2969 2969 2970 2970 2971 2971 2971 2971 2971 2971 2971 2970 2970 2969 2968 2966 2965 2965 2966 2966 2966 2967 2970 2971 2972 2973 2975 2977 2980 2982 2984 2985 2986 2987 2988 2989 2990 2991 2991 2992 2993 2994 2994 2996 2997 2998 2999 3001 3002 3001 3001 3001 3001 3001 3002 3005 3008 3011 3013 3015 3018 3020 3023 3026 3028 3029 3029 3029 3029 3029 3030 3032 3034 3036 3036 3036 3036 3037 3038 3040 3043
2968 2968 2967 2967 2967 2967 2968 2968 2969 2969 2969 2969 2969 2969 2969 2969 2969 2968 2968 2967 2967 2965 2963 2963 2964 2964 2965 2966 2968 2969 2970 2972 2975 2977 2980 2982 2983 2984 2985 2986 2987 2988 2989 2989 2990 2992 2993 2992 2993 2994 2995 2996 2998 2999 3001 3001 3000 3000 3000 3000 3002 3004 3007 3009 3010 3011 3012 3014 3017 3021 3024 3026 3028 3029 3029 3030 3031 3032 3034 3036 3037 3037 3036 3037 3037 3039 3041
2967 2967 2966 2966 2966 2966 2967 2967 2967 2968 2968 2968 2968 2968 2968 2967 2967 2966 2966 2965 2965 2964 2962 2962 2963 2963 2964 2965 2967 2967 2969 2972 2975 2977 2979 2980 2982 2983 2984 2985 2986 2987 2988 2988 2989 2991 2991 2992 2992 2993 2994 2996 2997 2998 2999 3000 3000 3000 3000 3000 3001 3002 3004 3006 3007 3008 3009 3012 3015 3018 3021 3023 3025 3027 3028 3029 3031 3031 3033 3034 3036 3037 3037 3037 3037 3038 3039
2966 2966 2965 2965 2965 2965 2966 2966 2966 2967 2967 2967 2966 2966 2966 2966 2965 2965 2964 2964 2964 2963 2962 2961 2961 2962 2963 2965 2966 2967 2969 2972 2974 2976 2978 2979 2981 2982 2984 2985 2986 2987 2987 2988 2989 2990 2991 2991 2992 2993 2994 2996 2997 2997 2998 2999 2999 2999 2999 2998 2998 3000 3001 3003 3005 3007 3009 3012 3014 3016 3018 3021 3023 3024 3026 3027 3029 3030 3031 3033 3034 3036 3037 3037 3037 3038 3039
2965 2965 2965 2965 2965 2965 2965 2965 2965 2966 2966 2965 2965 2965 2965 2965 2964 2964 2964 2963 2963 2962 2962 2961 2961 2962 2963 2964 2965 2967 2969 2971 2973 2975 2977 2979 2980 2982 2983 2984 2985 2986 2987 2988 2989 2990 2990 2991 2992 2993 2994 2995 2996 2996 2996 2997 2998 2998 2997 2997 2997 2998 3000 3003 3004 3006 3008 3010 3012 3015 3018 3020 3022 3023 3024 3025 3026 3028 3029 3030 3031 3033 3034 3036 3036 3038 3041
2964 2964 2964 2964 2964 2964 2964 2964 2964 2964 2964 2964 2964 2964 2964 2964 2964 2963 2963 2963 2962 2962 2961 2961 2961 2962 2963 2964 2965 2967 2969 2971 2973 2975 2977 2978 2980 2981 2982 2984 2984 2986 2987 2989 2990 2990 2991 2991 2992 2993 2994 2995 2996 2996 2995 2996 2997 2996 2995 2995 2997 2998 2999 3002 3004 3006 3008 3010 3012 3014 3017 3019 3021 3023 3023 3024 3025 3026 3027 3028 3029 3031 3032 3034 3036 3038 3041
2964 2963 2963 2963 2963 2963 2963 2963 2963 2963 2963 2963 2963 2963 2964 2963 2963 2963 2963 2962 2962 2962 2962 2961 2961 2962 2963 2965 2966 2968 2970 2972 2974 2975 2976 2978 2979 2981 2982 2983 2984 2986 2987 2989 2991 2991 2991 2992 2993 2994 2995 2995 2996 2996 2996 2996 2995 2994 2994 2995 2996 2997 2998 3000 3004 3006 3009 3010 3012 3014 3016 3018 3020 3022 3023 3024 3025 3025 3027 3028 3029 3030 3032 3034 3036 3038 3040
2963 2962 2962 2962 2962 2962 2962 2962 2962 2962 2962 2962 2963 2963 2963 2963 2963 2963 2963 2963 2963 2963 2963 2962 2962 2962 2964 2965 2967 2968 2970 2972 2973 2975 2976 2977 2979 2980 2982 2983 2985 2986 2988 2990 2991 2991 2992 2993 2994 2994 2995 2995 2996 2996 2996 2995 2995 2994 2994 2994 2995 2996 2998 3001 3004 3006 3007 3009 3011 3012 3014 3016 3019 3021 3023 3024 3025 3026 3027 3028 3029 3031 3033 3034 3036 3038 3039
2962 2962 2962 2962 2962 2962 2962 2961 2961 2962 2962 2962 2962 2963 2963 2964 2964 2964 2964 2964 2964 2964 2963 2963 2963 2963 2963 2965 2966 2968 2970 2972 2973 2975 2976 2977 2978 2980 2982 2983 2985 2986 2988 2989 2991 2991 2992 2993 2994 2994 2995 2995 2995 2996 2996 2996 2995 2995 2995 2995 2995 2996 2999 3002 3004 3005 3006 3008 3010 3012 3013 3015 3018 3020 3021 3022 3023 3024 3026 3027 3029 3030 3032 3033 3035 3036 3037
2962 2962 2962 2961 2961 2961 2961 2961 2961 2961 2961 2962 2962 2963 2964 2964 2965 2965 2964 2964 2964 2964 2964 2964 2964 2963 2963 2965 2967 2969 2971 2972 2973 2975 2976 2977 2979 2980 2982 2983 2985 2986 2987 2989 2990 2991 2992 2993 2994 2994 2995 2995 2996 2996 2997 2997 2997 2997 2998 2999 2999 2999 3000 3003 3005 3007 3007 3008 3010 3013 3015 3016 3018 3019 3020 3021 3022 3024 3026 3028 3029 3030 3031 3032 3033 3034 3036
2963 2962 2962 2962 2962 2962 2961 2961 2961 2961 2962 2962 2963 2964 2965 2965 2965 2965 2965 2965 2965 2965 2965 2966 2966 2965 2965 2966 2968 2970 2971 2973 2974 2975 2976 2978 2979 2980 2982 2984 2985 2986 2987 2989 2991 2992 2992 2993 2994 2995 2996 2996 2997 2998 2998 2998 2999 3000 3001 3002 3003 3003 3005 3006 3008 3010 3011 3011 3012 3015 3017 3018 3019 3020 3021 3022 3024 3025 3027 3028 3029 3030 3031 3032 3033 3033 3034
2963 2963 2963 2963 2963 2962 2962 2962 2962 2962 2963 2964 2965 2965 2965 2966 2966 2966 2966 2966 2966 2966 2966 2966 2966 2966 2966 2968 2969 2970 2972 2973 2974 2976 2977 2979 2980 2981 2982 2984 2985 2986 2988 2990 2991 2992 2993 2994 2995 2996 2996 2997 2998 2999 3000 3001 3002 3003 3005 3005 3006 3007 3009 3011 3012 3013 3014 3014 3015 3017 3018 3019 3021 3022 3023 3023 3024 3025 3026 3027 3028 3029 3030 3031 3031 3032 3032
2965 2965 2965 2964 2964 2964 2964 2964 2964 2964 2964 2965 2965 2965 2966 2966 2966 2966 2967 2967 2967 2967 2967 2966 2967 2967 2968 2969 2970 2971 2972 2973 2975 2976 2978 2979 2981 2982 2983 2984 2986 2987 2988 2990 2991 2992 2993 2995 2996 2997 2997 2998 2999 3000 3002 3003 3004 3006 3007 3008 3009 3011 3012 3014 3014 3015 3016 3017 3017 3018 3019 3020 3022 3023 3023 3023 3024 3024 3025 3026 3026 3027 3028 3029 3030 3030 3030
2967 2966 2966 2966 2965 2965 2965 2965 2965 2965 2966 2966 2966 2966 2966 2967 2967 2967 2968 2968 2968 2968 2968 2968 2968 2968 2969 2969 2970 2971 2972 2974 2976 2977 2979 2980 2981 2983 2984 2985 2986 2987 2989 2990 2992 2993 2994 2995 2997 2998 2999 3001 3002 3003 3004 3005 3006 3008 3009 3010 3012 3013 3014 3015 3016 3017 3017 3018 3019 3020 3021 3022 3023 3024 3024 3024 3024 3024 3025 3025 3026 3026 3027 3028 3028 3027 3027
2969 2968 2968 2967 2967 2967 2967 2967 2967 2967 2967 2967 2967 2967 2968 2968 2968 2968 2969 2969 2969 2969 2970 2969 2969 2970 2970 2970 2971 2971 2973 2974 2976 2978 2980 2981 2982 2983 2984 2985 2986 2988 2990 2991 2993 2994 2995 2996 2998 3000 3001 3003 3004 3005 3007 3008 3009 3010 3012 3013 3014 3016 3016 3017 3018 3019 3019 3020 3020 3021 3022 3022 3023 3023 3024 3024 3024 3024 3024 3024 3024 3025 3025 3025 3025 3024 3024
2971 2970 2970 2970 2969 2969 2969 2969 2969 2969 2969 2969 2969 2969 2969 2969 2969 2970 2970 2970 2970 2971 2971 2971 2971 2971 2971 2972 2972 2972 2973 2974 2976 2978 2980 2981 2982 2983 2985 2986 2987 2989 2991 2992 2994 2995 2996 2998 3000 3001 3003 3005 3006 3007 3008 3010 3011 3013 3014 3015 3017 3018 3019 3019 3020 3020 3020 3020 3021 3021 3021 3022 3022 3022 3022 3022 3022 3022 3022 3022 3022 3023 3022 3022 3022 3021 3020
2973 2973 2972 2972 2972 2972 2972 2972 2971 2971 2971 2971 2970 2971 2971 2971 2971 2971 2971 2971 2972 2972 2972 2972 2972 2972 2972 2973 2973 2973 2973 2975 2977 2978 2980 2981 2982 2983 2985 2986 2988 2990 2992 2993 2995 2996 2997 2999 3001 3003 3005 3006 3007 3009 3010 3012 3013 3014 3015 3017 3018 3019 3019 3020 3020 3020 3020 3020 3020 3020 3020 3021 3021 3021 3020 3020 3020 3020 3021 3021 3021 3021 3021 3020 3019 3018 3018
2976 2975 2975 2975 2974 2974 2974 2973 2973 2973 2972 2972 2972 2972 2972 2973 2973 2973 2973 2973 2973 2973 2973 2974 2974 2973 2973 2974 2974 2974 2975 2976 2978 2979 2981 2982 2983 2984 2985 2987 2988 2990 2992 2994 2996 2997 2999 3001 3003 3004 3006 3007 3009 3010 3012 3013 3014 3015 3016 3017 3018 3018 3019 3019 3019 3019 3019 3020 3020 3020 3020 3020 3019 3019 3019 3019 3018 3018 3019 3019 3019 3019 3019 3018 3017 3016 3015
2978 2977 2977 2976 2976 2976 2975 2975 2975 2975 2974 2974 2974 2974 2974 2974 2974 2974 2974 2974 2974 2974 2975 2975 2975 2974 2973 2974 2975 2976 2977 2978 2979 2980 2982 2983 2984 2985 2986 2987 2989 2991 2993 2995 2997 2998 3000 3002 3004 3005 3007 3008 3010 3011 3012 3013 3014 3015 3016 3017 3017 3018 3018 3019 3019 3019 3019 3019 3019 3019 3019 3019 3018 3018 3018 3018 3018 3018 3018 3018 3017 3017 3016 3016 3015 3014 3013
2980 2979 2979 2978 2977 2977 2977 2977 2977 2977 2976 2976 2976 2976 2976 2975 2975 2975 2976 2976 2976 2976 2976 2976 2975 2975 2974 2975 2976 2977 2978 2979 2980 2981 2982 2984 2985 2985 2986 2988 2990 2992 2993 2994 2997 2999 3001 3003 3005 3006 3008 3009 3010 3011 3012 3013 3014 3015 3015 3016 3017 3017 3018 3018 3018 3018 3018 3018 3018 3018 3018 3018 3018 3018 3018 3018 3017 3017 3017 3016 3016 3015 3014 3014 3013 3012 3011
2982 2981 2980 2979 2979 2979 2979 2979 2979 2979 2978 2978 2977 2977 2977 2977 2977 2977 2977 2976 2977 2977 2977 2977 2976 2976 2976 2977 2978 2979 2980 2981 2982 2983 2984 2985 2986 2987 2988 2989 2991 2992 2994 2995 2998 3000 3002 3003 3005 3007 3008 3010 3011 3012 3013 3014 3014 3015 3016 3016 3017 3017 3017 3018 3018 3018 3018 3018 3018 3018 3018 3018 3018 3018 3018 3018 3017 3017 3016 3015 3015 3014 3014 3013 3012 3012 3011
2983 2983 2982 2981 2981 2982 2981 2981 2981 2981 2980 2979 2979 2978 2978 2979 2979 2979 2978 2977 2978 2979 2979 2979 2978 2978 2978 2978 2979 2980 2981 2982 2983 2984 2985 2986 2987 2988 2989 2990 2991 2993 2994 2997 2999 3001 3003 3004 3006 3007 3009 3010 3012 3013 3014 3014 3015 3016 3017 3017 3018 3018 3018 3018 3019 3019 3019 3019 3019 3019 3019 3019 3019 3019 3018 3018 3017 3016 3016 3015 3015 3014 3014 3013 3013 3012 3012
2985 2985 2984 2984 2984 2985 2984 2984 2983 2983 2982 2981 2980 2980 2980 2980 2980 2980 2980 2980 2981 2981 2981 2981 2981 2980 2980 2980 2980 2980 2982 2983 2984 2985 2986 2987 2988 2989 2990 2992 2992 2994 2996 2998 3000 3002 3004 3006 3007 3008 3010 3011 3013 3014 3015 3015 3016 3017 3018 3018 3018 3019 3019 3019 3019 3019 3019 3019 3019 3019 3019 3020 3020 3019 3019 3018 3018 3017 3016 3015 3015 3014 3014 3013 3013 3012 3012
2988 2988 2987 2987 2988 2988 2988 2987 2986 2985 2983 2982 2981 2982 2983 2982 2982 2982 2982 2983 2983 2983 2984 2984 2983 2982 2982 2982 2982 2983 2984 2984 2986 2987 2988 2989 2989 2990 2991 2992 2994 2995 2998 3000 3002 3004 3006 3008 3009 3009 3011 3012 3014 3015 3016 3017 3017 3018 3019 3019 3019 3019 3019 3019 3020 3019 3019 3019 3019 3020 3020 3020 3019 3019 3019 3018 3018 3017 3016 3016 3015 3014 3014 3014 3013 3013 3012
2991 2991 2991 2991 2991 2991 2990 2988 2987 2986 2985 2984 2983 2984 2985 2985 2985 2985 2985 2985 2985 2985 2986 2986 2985 2985 2985 2984 2984 2985 2985 2986 2988 2989 2990 2991 2992 2992 2993 2994 2996 2999 3001 3003 3005 3006 3008 3009 3010 3011 3012 3014 3015 3015 3017 3017 3018 3019 3019 3019 3019 3019 3019 3019 3019 3019 3019 3019 3019 3020 3020 3019 3019 3019 3018 3017 3017 3016 3016 3015 3015 3015 3014 3014 3013 3013 3012
2995 2995 2995 2994 2994 2993 2992 2990 2989 2989 2988 2987 2987 2988 2988 2988 2987 2987 2987 2987 2987 2987 2988 2988 2987 2987 2987 2987 2987 2987 2988 2990 2991 2992 2992 2993 2995 2995 2996 2998 3000 3002 3003 3005 3007 3008 3009 3011 3012 3012 3014 3015 3015 3016 3017 3018 3018 3018 3019 3019 3019 3019 3019 3019 3020 3020 3020 3019 3019 3019 3019 3019 3018 3018 3017 3016 3016 3015 3015 3015 3015 3015 3014 3014 3013 3013 3012
2999 2998 2998 2997 2997 2996 2996 2995 2993 2993 2992 2992 2991 2991 2991 2990 2990 2989 2989 2989 2989 2989 2990 2990 2990 2990 2989 2989 2989 2990 2991 2993 2994 2995 2996 2997 2998 2999 3000 3002 3003 3005 3006 3008 3009 3010 3012 3013 3013 3014 3015 3016 3016 3017 3017 3017 3018 3018 3018 3018 3019 3019 3020 3020 3020 3020 3020 3019 3019 3019 3018 3018 3017 3016 3016 3015 3015 3015 3015 3015 3015 3014 3014 3013 3013 3012 3011